User: anonymous   Login
Location: Bonn
(50.7330°N, 7.1000°E)
Time: 13:45:28
(UTC+02:00)
Language:

Iridium 84 - Orbit

View from above orbital plane
View from above orbital plane
View from above satellite
View from above satellite

Ground track
Ground track

The orbit data is extracted from the following two-line orbital elements,

1 25530U 98066D   16273.28047079 -.00000017  00000-0 -13164-4 0  9999
2 25530  86.3915  99.0669 0001934  85.7372 274.4045 14.34219368939601
Epoch (UTC): 29 September 2016 06:43:52
Eccentricity: 0.0001934
inclination: 86.3915°
perigee height: 776 km
apogee height: 779 km
right ascension of ascending node: 99.0669°
argument of perigee: 85.7372°
revolutions per day: 14.34219368
mean anomaly at epoch: 274.4045°
orbit number at epoch: 93960

The dashed part of the orbit path shows where the satellite is in the earth's shadow,  

DLR